| time (UTC) | temp F | wind direction | speed knots | gust knots | rain 1hr in | rain 24hr in | rain mn in | humidity % | barometer mb |
| 20260508010039 | 37 | 0 | 0.0 | 0.0 | 0.00 | 0.00 | 0.00 | 87 | 1018.9 |
| 20260508004538 | 37 | 0 | 0.0 | 0.0 | 0.00 | 0.00 | 0.00 | 87 | 1018.8 |
| 20260508003036 | 37 | 0 | 0.0 | 0.0 | 0.00 | 0.00 | 0.00 | 86 | 1018.8 |
| 20260508001536 | 38 | 0 | 0.0 | 0.0 | 0.00 | 0.00 | 0.00 | 87 | 1018.7 |
| 20260508000042 | 37 | 0 | 0.0 | 0.0 | 0.00 | 0.00 | 0.00 | 88 | 1019.0 |
| 20260507234538 | 37 | 0 | 0.0 | 0.0 | 0.00 | 0.00 | 0.00 | 88 | 1018.9 |
| 20260507233043 | 37 | 0 | 0.0 | 0.0 | 0.00 | 0.00 | 0.00 | 87 | 1018.9 |
| 20260507231538 | 37 | 0 | 0.0 | 0.0 | 0.00 | 0.00 | 0.00 | 85 | 1018.9 |
| 20260507230045 | 37 | 0 | 0.0 | 0.0 | 0.00 | 0.00 | 0.00 | 85 | 1019.0 |
| 20260507224543 | 37 | 0 | 0.0 | 0.0 | 0.00 | 0.00 | 0.00 | 84 | 1019.1 |
| 20260507223038 | 37 | 0 | 0.0 | 0.0 | 0.00 | 0.00 | 0.00 | 83 | 1019.1 |
| 20260507221544 | 38 | 0 | 0.0 | 0.0 | 0.00 | 0.00 | 0.00 | 83 | 1018.9 |
| 20260507220042 | 38 | 0 | 0.0 | 0.0 | 0.00 | 0.00 | 0.00 | 82 | 1018.9 |
| 20260507214549 | 38 | 0 | 0.0 | 0.0 | 0.00 | 0.00 | 0.00 | 81 | 1018.9 |
| 20260507213044 | 39 | 0 | 0.0 | 0.0 | 0.00 | 0.00 | 0.00 | 79 | 1018.8 |
| 20260507211538 | 40 | 0 | 0.0 | 0.0 | 0.00 | 0.00 | 0.00 | 78 | 1018.7 |
| 20260507210038 | 40 | 0 | 0.0 | 0.0 | 0.00 | 0.00 | 0.00 | 77 | 1018.8 |
| 20260507204538 | 41 | 0 | 0.0 | 0.0 | 0.00 | 0.00 | 0.00 | 74 | 1018.9 |
| 20260507203043 | 43 | 0 | 0.0 | 0.0 | 0.00 | 0.00 | 0.00 | 72 | 1018.9 |
| 20260507201549 | 44 | 0 | 0.0 | 0.0 | 0.00 | 0.00 | 0.00 | 70 | 1018.7 |
| 20260507200055 | 44 | 0 | 0.0 | 0.0 | 0.00 | 0.00 | 0.00 | 68 | 1018.7 |
| 20260507194538 | 45 | 0 | 0.0 | 0.0 | 0.00 | 0.00 | 0.00 | 67 | 1018.5 |
| 20260507193047 | 46 | 0 | 0.0 | 0.0 | 0.00 | 0.00 | 0.00 | 65 | 1018.5 |
| 20260507191541 | 47 | 0 | 0.0 | 0.9 | 0.00 | 0.00 | 0.00 | 61 | 1018.3 |
| 20260507190040 | 48 | 269 | 0.0 | 3.5 | 0.00 | 0.00 | 0.00 | 60 | 1018.1 |
| 20260507184541 | 49 | 272 | 0.9 | 3.5 | 0.00 | 0.00 | 0.00 | 58 | 1017.9 |
| 20260507183050 | 50 | 0 | 0.0 | 3.5 | 0.00 | 0.00 | 0.00 | 56 | 1017.9 |
| 20260507181548 | 51 | 0 | 0.9 | 6.1 | 0.00 | 0.00 | 0.00 | 54 | 1017.8 |
| 20260507180051 | 51 | 0 | 0.0 | 7.8 | 0.00 | 0.00 | 0.00 | 53 | 1017.8 |
| 20260507174541 | 52 | 0 | 0.9 | 7.8 | 0.00 | 0.00 | 0.00 | 51 | 1017.7 |
| 20260507173039 | 53 | 276 | 3.5 | 7.8 | 0.00 | 0.00 | 0.00 | 51 | 1017.8 |
| 20260507171538 | 53 | 0 | 3.5 | 8.7 | 0.00 | 0.00 | 0.00 | 52 | 1017.8 |
| 20260507170038 | 54 | 279 | 0.0 | 10.4 | 0.00 | 0.00 | 0.00 | 50 | 1017.6 |
| 20260507164543 | 54 | 0 | 0.0 | 9.6 | 0.00 | 0.00 | 0.00 | 50 | 1017.6 |
| 20260507163041 | 55 | 240 | 2.6 | 7.8 | 0.00 | 0.00 | 0.00 | 49 | 1017.7 |
| 20260507161540 | 54 | 269 | 2.6 | 10.4 | 0.00 | 0.00 | 0.00 | 51 | 1017.5 |
| 20260507160041 | 55 | 289 | 4.3 | 10.4 | 0.00 | 0.00 | 0.00 | 50 | 1017.7 |
| 20260507154542 | 55 | 283 | 2.6 | 8.7 | 0.00 | 0.00 | 0.00 | 50 | 1017.7 |
| 20260507153038 | 56 | 282 | 7.0 | 12.2 | 0.00 | 0.00 | 0.00 | 47 | 1017.7 |
| 20260507151543 | 56 | 271 | 3.5 | 10.4 | 0.00 | 0.00 | 0.00 | 46 | 1017.8 |
| 20260507150043 | 56 | 0 | 3.5 | 11.3 | 0.00 | 0.00 | 0.00 | 46 | 1017.8 |
| 20260507144539 | 56 | 233 | 4.3 | 11.3 | 0.00 | 0.00 | 0.00 | 46 | 1017.7 |
| 20260507143039 | 56 | 257 | 2.6 | 10.4 | 0.00 | 0.00 | 0.00 | 46 | 1017.8 |
| 20260507141539 | 56 | 269 | 6.1 | 12.2 | 0.00 | 0.00 | 0.00 | 44 | 1017.9 |
| 20260507140036 | 56 | 0 | 6.1 | 11.3 | 0.00 | 0.00 | 0.00 | 43 | 1018.0 |
| 20260507134542 | 56 | 277 | 5.2 | 12.2 | 0.00 | 0.00 | 0.00 | 44 | 1017.9 |
| 20260507133056 | 56 | 278 | 5.2 | 13.0 | 0.00 | 0.00 | 0.00 | 46 | 1017.9 |
| 20260507131549 | 57 | 272 | 6.1 | 12.2 | 0.00 | 0.00 | 0.00 | 44 | 1017.8 |
| 20260507130054 | 57 | 259 | 5.2 | 13.9 | 0.00 | 0.00 | 0.00 | 42 | 1017.8 |
| 20260507124537 | 58 | 271 | 5.2 | 10.4 | 0.00 | 0.00 | 0.00 | 41 | 1017.7 |
| 20260507123043 | 58 | 0 | 3.5 | 10.4 | 0.00 | 0.00 | 0.00 | 41 | 1017.6 |
| 20260507121540 | 58 | 286 | 7.0 | 13.9 | 0.00 | 0.00 | 0.00 | 41 | 1017.7 |
| 20260507120052 | 59 | 232 | 4.3 | 11.3 | 0.00 | 0.00 | 0.00 | 41 | 1017.7 |
| 20260507114612 | 59 | 0 | 0.9 | 12.2 | 0.00 | 0.00 | 0.00 | 41 | 1017.6 |
| 20260507113038 | 59 | 0 | 6.1 | 12.2 | 0.00 | 0.00 | 0.00 | 40 | 1017.6 |
| 20260507111537 | 59 | 0 | 4.3 | 11.3 | 0.00 | 0.00 | 0.00 | 39 | 1017.8 |
| 20260507110043 | 58 | 294 | 1.7 | 11.3 | 0.00 | 0.00 | 0.00 | 39 | 1017.7 |
| 20260507104541 | 57 | 0 | 0.0 | 7.8 | 0.00 | 0.00 | 0.00 | 35 | 1017.6 |
| 20260507103040 | 59 | 0 | 0.9 | 5.2 | 0.00 | 0.00 | 0.00 | 36 | 1017.8 |
| 20260507101543 | 57 | 247 | 0.9 | 7.0 | 0.00 | 0.00 | 0.00 | 39 | 1017.6 |
| 20260507100039 | 58 | 0 | 0.0 | 6.1 | 0.00 | 0.00 | 0.00 | 37 | 1017.6 |
| 20260507094536 | 57 | 0 | 0.9 | 7.8 | 0.00 | 0.00 | 0.00 | 40 | 1017.8 |
| 20260507093047 | 56 | 261 | 0.0 | 7.8 | 0.00 | 0.00 | 0.00 | 42 | 1017.9 |
| 20260507091546 | 54 | 0 | 0.9 | 7.8 | 0.00 | 0.00 | 0.00 | 43 | 1017.6 |
| 20260507090041 | 56 | 0 | 0.0 | 8.7 | 0.00 | 0.00 | 0.00 | 42 | 1017.8 |
| 20260507084548 | 56 | 265 | 4.3 | 10.4 | 0.00 | 0.00 | 0.00 | 44 | 1017.6 |
| 20260507083044 | 55 | 280 | 0.9 | 8.7 | 0.00 | 0.00 | 0.00 | 46 | 1017.7 |
| 20260507081540 | 54 | 284 | 3.5 | 9.6 | 0.00 | 0.00 | 0.00 | 49 | 1017.6 |
| 20260507080044 | 53 | 271 | 0.0 | 9.6 | 0.00 | 0.00 | 0.00 | 52 | 1017.5 |
| 20260507074542 | 50 | 269 | 1.7 | 7.0 | 0.00 | 0.00 | 0.00 | 56 | 1017.5 |
| 20260507073036 | 48 | 0 | 0.0 | 3.5 | 0.00 | 0.00 | 0.00 | 63 | 1017.5 |
| 20260507071535 | 46 | 0 | 0.0 | 1.7 | 0.00 | 0.00 | 0.00 | 69 | 1017.4 |
| 20260507070042 | 44 | 0 | 0.0 | 1.7 | 0.00 | 0.00 | 0.00 | 73 | 1017.6 |
| 20260507064540 | 42 | 0 | 0.0 | 0.0 | 0.00 | 0.00 | 0.00 | 78 | 1017.4 |
| 20260507063038 | 42 | 0 | 0.0 | 0.0 | 0.00 | 0.00 | 0.00 | 78 | 1017.3 |
| 20260507061538 | 40 | 0 | 0.0 | 0.0 | 0.00 | 0.00 | 0.00 | 82 | 1017.3 |
| 20260507060036 | 39 | 0 | 0.0 | 0.0 | 0.00 | 0.00 | 0.00 | 84 | 1017.2 |
| 20260507054539 | 38 | 0 | 0.0 | 0.0 | 0.00 | 0.00 | 0.00 | 86 | 1017.3 |
| 20260507053040 | 37 | 0 | 0.0 | 0.0 | 0.00 | 0.00 | 0.00 | 89 | 1017.2 |
| 20260507051541 | 36 | 0 | 0.0 | 0.0 | 0.00 | 0.00 | 0.00 | 90 | 1017.2 |
| 20260507050038 | 35 | 0 | 0.0 | 0.0 | 0.00 | 0.00 | 0.00 | 90 | 1017.1 |
| 20260507044538 | 34 | 0 | 0.0 | 0.0 | 0.00 | 0.00 | 0.00 | 91 | 1017.0 |
| 20260507043044 | 33 | 0 | 0.0 | 0.0 | 0.00 | 0.00 | 0.00 | 92 | 1016.9 |
| 20260507041543 | 32 | 0 | 0.0 | 0.0 | 0.00 | 0.00 | 0.00 | 92 | 1016.7 |
| 20260507040043 | 32 | 0 | 0.0 | 0.0 | 0.00 | 0.00 | 0.00 | 91 | 1016.9 |
| 20260507034539 | 32 | 0 | 0.0 | 0.0 | 0.00 | 0.00 | 0.00 | 90 | 1016.7 |
| 20260507033038 | 32 | 0 | 0.0 | 0.0 | 0.00 | 0.00 | 0.00 | 90 | 1016.6 |
| 20260507031537 | 33 | 0 | 0.0 | 0.0 | 0.00 | 0.00 | 0.00 | 89 | 1016.7 |
| 20260507030044 | 33 | 0 | 0.0 | 0.0 | 0.00 | 0.00 | 0.00 | 89 | 1016.6 |
| 20260507024542 | 34 | 0 | 0.0 | 0.0 | 0.00 | 0.00 | 0.00 | 88 | 1016.5 |
| 20260507023046 | 34 | 0 | 0.0 | 0.0 | 0.00 | 0.00 | 0.00 | 89 | 1016.4 |
| 20260507021544 | 35 | 0 | 0.0 | 0.0 | 0.00 | 0.00 | 0.00 | 88 | 1016.3 |
| 20260507020059 | 35 | 0 | 0.0 | 0.0 | 0.00 | 0.00 | 0.00 | 89 | 1016.3 |
| 20260507014537 | 34 | 0 | 0.0 | 0.0 | 0.00 | 0.00 | 0.00 | 89 | 1016.3 |
| 20260507013051 | 34 | 0 | 0.0 | 0.0 | 0.00 | 0.00 | 0.00 | 86 | 1016.3 |
| 20260507011542 | 36 | 0 | 0.0 | 0.0 | 0.00 | 0.00 | 0.00 | 87 | 1016.3 |